Regional Weather Roundup
Issued by NWS

Home | Current Version | Previous Version | Text Only | Print | Product List | Glossary Off
Versions: 1 2 3 4 5 6 7 8 9 10 11 12 13 14 15 16 17 18 19 20 21 22 23 24 25 26 27 28 29 30 31 32 33 34 35 36 37 38 39 40 41 42 43 44 45 46 47 48 49 50

000
ASUS43 KFSD 180002
RWRSD

WEATHER ROUNDUP FOR SOUTH DAKOTA
NATIONAL WEATHER SERVICE SIOUX FALLS SD
700 PM CDT THU APR 17 2014

NOTE: "FAIR" INDICATES FEW OR NO CLOUDS BELOW 12,000 FEET WITH NO
SIGNIFICANT WEATHER AND/OR OBSTRUCTIONS TO VISIBILITY.


SDZ001>005-009-010-012>017-180100-
NORTHWEST AND NORTH CENTRAL SOUTH DAKOTA

CITY           SKY/WX    TMP DP  RH WIND       PRES   REMARKS
FAITH            N/A     46  29  51 SE21G28   30.04F
MOBRIDGE       PTSUNNY   45  23  42 S17       30.13F
$$

SDZ012>016-024>037-041>051-057-063-072>074-180100-
SOUTHWEST AND SOUTH CENTRAL SOUTH DAKOTA

CITY           SKY/WX    TMP DP  RH WIND       PRES   REMARKS
RAPID CTY ARPT SUNNY     53  36  52 SE21G28   29.97F
PIERRE         CLOUDY    45  23  42 SE17      30.14F
CUSTER         SUNNY     47  30  51 S7        29.98F
ELLSWORTH AFB  SUNNY     54  37  53 SE23      29.96F
PHILIP         SUNNY     50  30  46 SE18G24   30.05F
PINE RIDGE     SUNNY     51  34  52 S17       30.02F
$$

SDZ004>011-016>023-039-040-180100-
NORTHEAST SOUTH DAKOTA

CITY           SKY/WX    TMP DP  RH WIND       PRES   REMARKS
ABERDEEN       SUNNY     44  21  40 S12       30.24S
WATERTOWN      MOSUNNY   39  16  39 VRB3      30.25F
SISSETON         N/A     42  19  39 SE5       30.26S
$$

SDZ017-020-022-023-036>040-048>070-180100-
SOUTHEAST SOUTH DAKOTA

CITY           SKY/WX    TMP DP  RH WIND       PRES   REMARKS
SIOUX FALLS    PTSUNNY   43  23  45 NE3       30.26F
HURON          CLOUDY    44  18  35 SE7       30.23F
CHAMBERLAIN      N/A     44  25  47 SE12      30.19F
MITCHELL       CLOUDY    48  20  32 SE8       30.24F
YANKTON        PTSUNNY   48  21  34 E6        30.25F
$$

ABBREVIATIONS USED IN REMARKS
   TC - TEMPERATURE IN CELSIUS
  WCI - WIND CHILL INDEX
   HX - HEAT INDEX
  VSB - VISIBILITY




USA.gov is the U.S. government's official web portal to all federal, state and local government web resources and services.